Stations météo

réclame
Mon MeteoGroup
Lecce, Italie (16332): Température de l'air & dewpoint: 17.01.2019 08:00:00 - 23.01.2019 08:00:00 (CET)Lecce, Italie (16332): Vitesse du vent: 17.01.2019 08:00:00 - 23.01.2019 08:00:00 (CET)Lecce, Italie (16332): Direction du vent: 17.01.2019 08:00:00 - 23.01.2019 08:00:00 (CET)Lecce, Italie (16332): reduced air pressure: 17.01.2019 08:00:00 - 23.01.2019 08:00:00 (CET)Lecce, Italie (16332): visibility: 17.01.2019 08:00:00 - 23.01.2019 08:00:00 (CET)
Date & Time tt [°C] td [°C] ff [km/h] ff [knt] dd ppp [hPa] vv [km]
23.01.2019 08:00:00 5,0 5,0 8 4 SE - 10
23.01.2019 07:00:00 4,8 4,5 5 3 E 1002,4 10
23.01.2019 06:00:00 5,0 5,0 8 4 ESE - 10
23.01.2019 05:00:00 5,0 5,0 5 3 E - 10
23.01.2019 04:00:00 6,2 5,6 8 4 ESE 1003,9 10
23.01.2019 03:00:00 7,0 6,0 4 2 E - 10
23.01.2019 02:00:00 6,0 4,0 5 3 S - 10
23.01.2019 01:00:00 9,8 5,4 13 7 WSW 1004,3 10
23.01.2019 00:00:00 10,0 5,0 16 9 WSW - 10
22.01.2019 23:00:00 9,0 6,0 9 5 SW - 10
22.01.2019 22:00:00 9,8 6,2 16 9 WSW 1004,8 10
22.01.2019 21:00:00 10,0 7,0 15 8 SW - 10
22.01.2019 20:00:00 10,0 7,0 13 7 SW - 10
22.01.2019 19:00:00 10,6 7,5 21 11 SW 1004,3 10
22.01.2019 18:00:00 10,0 7,0 21 11 SW - 10
22.01.2019 17:00:00 10,0 8,0 13 7 SSW - 10
22.01.2019 16:00:00 11,0 9,4 18 10 SSW 1004,2 7
22.01.2019 15:00:00 11,0 11,0 16 9 SW - 7
22.01.2019 14:00:00 12,0 10,0 21 11 S - 10
22.01.2019 13:00:00 12,8 8,7 22 12 S 1005,5 10
22.01.2019 12:00:00 13,0 9,0 22 12 S - 10
22.01.2019 11:00:00 11,0 9,0 21 11 SSE - 10
22.01.2019 10:00:00 10,4 9,5 15 8 SSE 1006,9 10
22.01.2019 09:00:00 9,0 9,0 11 6 SE - 10
22.01.2019 08:00:00 9,0 9,0 15 8 SSE - 7
22.01.2019 07:00:00 10,0 9,1 22 12 SSE 1008,3 8
22.01.2019 06:00:00 8,0 7,0 16 9 SSE - 10
22.01.2019 05:00:00 9,0 8,0 18 10 SSE - 10
22.01.2019 04:00:00 10,0 9,4 18 10 SSE 1009,2 10
22.01.2019 03:00:00 10,0 9,0 18 10 SSE - 10
22.01.2019 02:00:00 9,0 8,0 18 10 SE - 10
22.01.2019 01:00:00 9,0 8,1 18 10 SE 1011,7 10
22.01.2019 00:00:00 9,0 8,0 18 10 SSE - 10
21.01.2019 23:00:00 10,0 8,0 18 10 SSE - 10
21.01.2019 22:00:00 8,8 8,1 11 6 ESE 1012,5 10
21.01.2019 21:00:00 9,0 8,0 9 5 SE - 10
21.01.2019 20:00:00 9,0 8,0 9 5 SE - 10
21.01.2019 19:00:00 9,8 9,2 11 6 SSE 1013,3 10
21.01.2019 18:00:00 10,0 9,0 9 5 SSE - 10
21.01.2019 17:00:00 10,0 9,0 9 5 S - 10
21.01.2019 16:00:00 12,4 9,0 15 8 S 1013,1 10
21.01.2019 15:00:00 14,0 9,0 16 9 S - 10
21.01.2019 14:00:00 14,0 10,0 18 10 SSE - 10
21.01.2019 13:00:00 14,4 9,6 18 10 SSE 1013,4 10
21.01.2019 12:00:00 14,0 10,0 16 9 SSE - 10
21.01.2019 11:00:00 13,0 9,0 15 8 SE - 10
21.01.2019 10:00:00 9,4 9,0 8 4 ESE 1014,7 10
21.01.2019 09:00:00 5,0 4,0 5 3 SE - 6
21.01.2019 08:00:00 2,0 2,0 8 4 SE - 4,0
21.01.2019 07:00:00 1,8 1,1 5 3 ESE 1014,9 1,2
21.01.2019 06:00:00 2,0 1,0 8 4 ESE - 4,0
21.01.2019 05:00:00 2,0 1,0 5 3 - - 0,8
21.01.2019 04:00:00 1,8 1,1 4 2 N 1015,3 0,3
21.01.2019 03:00:00 1,0 1,0 4 2 - - 0,3
21.01.2019 02:00:00 1,0 1,0 2 1 - - 0,3
21.01.2019 01:00:00 2,2 1,5 4 2 N 1015,6 0,3
21.01.2019 00:00:00 2,0 2,0 2 1 - - 0,3
20.01.2019 23:00:00 4,0 3,0 5 3 SSW - 0,3
20.01.2019 22:00:00 3,6 2,9 4 2 N 1014,6 0,2
20.01.2019 21:00:00 4,0 3,0 4 2 ESE - 0,8
20.01.2019 20:00:00 5,0 4,0 0 0 N - 5
20.01.2019 19:00:00 6,2 5,3 0 0 N 1014,2 10
20.01.2019 18:00:00 8,0 7,0 5 3 E - 10
20.01.2019 17:00:00 10,0 8,0 8 4 NE - 10
20.01.2019 16:00:00 10,6 7,8 9 5 ENE 1013,7 10
20.01.2019 15:00:00 14,0 7,0 0 0 N - 10
20.01.2019 14:00:00 13,0 7,0 0 0 N - 10
20.01.2019 13:00:00 12,2 5,6 4 2 N 1014,1 10
20.01.2019 12:00:00 10,0 9,0 4 2 - - 10
20.01.2019 11:00:00 8,0 7,0 5 3 NNW - 6
20.01.2019 10:00:00 7,0 6,2 0 0 N 1015,1 0,3
20.01.2019 09:00:00 3,0 2,0 2 1 - - 0,1
20.01.2019 08:00:00 1,0 1,0 2 1 - - 0,1
20.01.2019 07:00:00 0,8 0,2 2 1 N 1014,4 0,3
20.01.2019 06:00:00 1,0 1,0 2 1 - - 0,6
20.01.2019 05:00:00 3,0 2,0 5 3 N - 10
20.01.2019 04:00:00 2,6 1,9 4 2 N 1013,8 5
20.01.2019 03:00:00 4,0 3,0 4 2 - - 10
20.01.2019 02:00:00 4,0 3,0 2 1 - - 10
20.01.2019 01:00:00 4,4 3,7 5 3 N 1014,0 10
20.01.2019 00:00:00 5,0 4,0 8 4 WNW - 10
19.01.2019 23:00:00 7,0 6,0 8 4 S - 10
19.01.2019 22:00:00 8,4 7,3 9 5 SE 1013,9 10
19.01.2019 21:00:00 9,0 8,0 13 7 SSE - 10
19.01.2019 20:00:00 9,0 8,0 9 5 SSE - 10
19.01.2019 19:00:00 9,6 8,5 16 9 SSE 1013,7 10
19.01.2019 18:00:00 9,0 8,0 11 6 E - 10
19.01.2019 17:00:00 10,0 8,0 11 6 ESE - 10
19.01.2019 16:00:00 10,2 8,3 11 6 SE 1014,3 10
19.01.2019 15:00:00 11,0 9,0 11 6 E - 10
19.01.2019 14:00:00 11,0 9,0 5 3 SE - 10
19.01.2019 13:00:00 11,0 8,1 5 3 SE 1014,7 8
19.01.2019 12:00:00 10,0 8,0 15 8 S - 8
19.01.2019 11:00:00 10,0 9,0 5 3 SSE - 7
19.01.2019 10:00:00 9,2 8,3 9 5 SSE 1015,3 7
19.01.2019 09:00:00 8,0 7,0 5 3 ESE - 6
19.01.2019 08:00:00 4,0 3,0 5 3 SE - 0,9
19.01.2019 07:00:00 4,2 3,3 5 3 ESE 1015,0 0,1
19.01.2019 06:00:00 5,0 4,0 8 4 SE - 0,7
19.01.2019 05:00:00 6,0 5,0 8 4 ESE - 2,0
19.01.2019 04:00:00 6,0 5,3 8 4 SE 1014,9 7
19.01.2019 03:00:00 7,0 6,0 4 2 SE - 10
19.01.2019 02:00:00 7,0 6,0 9 5 ESE - 10
19.01.2019 01:00:00 7,0 6,1 8 4 ESE 1015,3 10
19.01.2019 00:00:00 7,0 6,0 8 4 SE - 10
18.01.2019 23:00:00 7,0 6,0 8 4 SE - 8
18.01.2019 22:00:00 7,2 6,3 11 6 SSE 1015,3 8
18.01.2019 21:00:00 8,0 7,0 5 3 SE - 8
18.01.2019 20:00:00 8,0 7,0 5 3 SSE - 10
18.01.2019 19:00:00 8,2 7,4 9 5 S 1015,4 10
18.01.2019 18:00:00 9,0 7,0 13 7 S - 10
18.01.2019 17:00:00 10,0 8,0 13 7 S - 10
18.01.2019 16:00:00 11,6 8,5 15 8 SSW 1015,4 10
18.01.2019 15:00:00 13,0 8,0 18 10 SSW - 10
18.01.2019 14:00:00 15,0 10,0 22 12 S - 10
18.01.2019 13:00:00 13,8 9,3 24 13 S 1015,5 10
18.01.2019 12:00:00 14,0 9,0 21 11 SSW - 10
18.01.2019 11:00:00 9,0 6,0 18 10 S - 10
18.01.2019 10:00:00 10,0 8,9 9 5 SSE 1016,6 8
18.01.2019 09:00:00 8,0 7,0 8 4 SE - 8
18.01.2019 08:00:00 8,0 7,0 11 6 ESE - 7
18.01.2019 07:00:00 8,0 7,1 4 2 SE 1016,1 7
18.01.2019 06:00:00 8,0 7,0 13 7 SSE - 10
18.01.2019 05:00:00 8,0 8,0 8 4 SSE - 8
18.01.2019 04:00:00 7,0 6,2 8 4 SSE 1017,2 10
18.01.2019 03:00:00 5,0 4,0 9 5 SSE - 10
18.01.2019 02:00:00 5,0 4,0 11 6 S - 10
18.01.2019 01:00:00 5,0 4,3 8 4 SE 1018,2 10
18.01.2019 00:00:00 4,0 3,0 8 4 SE - 10
17.01.2019 23:00:00 4,0 3,0 9 5 SE - 10
17.01.2019 22:00:00 4,0 3,3 9 5 SE 1019,0 10
17.01.2019 21:00:00 5,0 4,0 9 5 SE - 10
17.01.2019 20:00:00 5,0 4,0 8 4 SSE - 10
17.01.2019 19:00:00 4,8 4,1 5 3 SE 1019,4 10
17.01.2019 18:00:00 7,0 5,0 8 4 SE - 10
17.01.2019 17:00:00 8,0 6,0 9 5 S - 10
17.01.2019 16:00:00 10,8 6,7 15 8 S 1019,3 10
17.01.2019 15:00:00 13,0 7,0 16 9 S - 10
17.01.2019 14:00:00 13,0 6,0 15 8 S - 10
17.01.2019 13:00:00 12,4 4,6 15 8 SSE 1019,9 10
17.01.2019 12:00:00 13,0 7,0 13 7 SSE - 10
17.01.2019 11:00:00 12,0 7,0 13 7 SSE - 10
17.01.2019 10:00:00 10,6 6,4 9 5 ESE 1021,5 10
17.01.2019 09:00:00 5,0 3,0 4 2 ESE - 10
17.01.2019 08:00:00 1,0 1,0 5 3 SE - 10

tt = Température de l'air
td = dewpoint
ff = Vitesse du vent
dd = Direction du vent
ppp = reduced air pressure
vv = visibility

stations d'obs. à proximité